566  
ASUS42 KILM 281013  
RWRILM  
RWRILM  
REGIONAL HOURLY WEATHER ROUNDUP  
NATIONAL WEATHER SERVICE WILMINGTON NC  
600 AM EDT SUN MAY 28 2017  
 
NOTE: "FAIR" INDICATES FEW OR NO CLOUDS BELOW 12,000 FEET WITH NO  
SIGNIFICANT WEATHER AND/OR S TO VISIBILITY
.  
   
..............WFO WILMINGTON COUNTY WARNING AREA............
 
 
   
.....COASTAL NC AND SC COUNTIES...
 
 
 
CITY SKY/WX TMP DP RH WIND PRES REMARKS
 
WILMINGTON CLEAR 72 69 90 SW7 29.85F  
N MYRTLE BEACH PTCLDY 70 66 87 SW6 29.85F  
MYRTLE BEACH PTCLDY 72 66 81 S6 29.87F  
   
.....INLAND NC AND SC COUNTIES....
 
 
 
CITY SKY/WX TMP DP RH WIND PRES REMARKS
 
LUMBERTON CLOUDY 72 66 81 S5 29.81F  
ELIZABETHTOWN CLOUDY 71 66 86 S5 29.81F  
WHITEVILLE CLOUDY 71 65 83 S5 29.83F  
FLORENCE CLOUDY 71 63 75 SW5 29.83F  
DARLINGTON CLOUDY 70 65 84 S7 29.82F  
KINGSTREE FAIR 68 61 77 CALM 29.85F  
HARTSVILLE FAIR 68 63 83 SW3 29.82S  
BENNETTSVILLE FAIR 72 66 83 S7 29.81S  
CONWAY FAIR 68 64 88 SW3 29.86S  
GEORGETOWN FAIR 68 66 94 SW5 29.88F  
MARION FAIR 68 61 77 S5 29.84S  
   
...................REST OF NORTH CAROLINA...................
 
 
   
........EASTERN NC......
 
 
 
CITY SKY/WX TMP DP RH WIND PRES REMARKS
 
CAPE HATTERAS CLEAR 74 70 87 SW3 29.83S FOG  
JACKSONVILLE PTCLDY 69 68 96 SW5 29.84F  
MOREHEAD CITY CLEAR 75 74 96 SW7 29.84S  
KENANSVILLE PTCLDY 70 68 94 CALM 29.83F  
NEW BERN PTCLDY 69 68 96 CALM 29.84F FOG  
ELIZABETH CITY CLEAR 68 67 96 E3 29.83R  
   
........CENTRAL NC......
 
 
 
CITY SKY/WX TMP DP RH WIND PRES REMARKS
 
RALEIGH DURHAM CLOUDY 68 66 93 NE8 29.78F  
ROCKY MOUNT CLOUDY 67 67 100 CALM 29.82S FOG  
ROANOKE RAPIDS NOT AVBL  
FAYETTEVILLE MOCLDY 72 67 84 S5 29.80F  
HOFFMAN CLOUDY 70 66 86 SE7 29.78F  
   
........WESTERN NC......
 
 
 
CITY SKY/WX TMP DP RH WIND PRES REMARKS
 
CHARLOTTE CLOUDY 66 63 90 NW5 29.83R  
GREENSBORO CLOUDY 65 65 100 NW3 29.80F  
HICKORY NOT AVBL  
BOONE NOT AVBL  
ASHEVILLE NOT AVBL  
   
....................REST OF SOUTH CAROLINA..................
 
 
   
........EASTERN SC......
 
 
 
CITY SKY/WX TMP DP RH WIND PRES REMARKS
 
CHARLESTON PTCLDY 70 67 90 SW7 29.88F  
BEAUFORT MCAS PTCLDY 69 67 93 SW5 29.90S  
HILTON HEAD NOT AVBL  
   
........CENTRAL SC......
 
 
 
CITY SKY/WX TMP DP RH WIND PRES REMARKS
 
COLUMBIA PTCLDY 72 66 81 SW5 29.83F  
ORANGEBURG PTCLDY 66 63 90 SE3 29.86F  
SUMTER SHAW CLEAR 70 63 79 S6 29.81F  
   
........WESTERN SC......
 
 
 
CITY SKY/WX TMP DP RH WIND PRES REMARKS
 
GREENVILLE NOT AVBL  
ROCK HILL CLOUDY 69 65 86 CALM 29.84R  
ANDERSON MOCLDY 68 64 87 SW8 29.87S  
CLEMSON NOT AVBL  
GREENWOOD MOCLDY 68 65 90 SW10 29.87R  
 
   
..................COASTAL AND OFFSHORE REPORTS...............
 
 
   
...............LOCAL PIERS AND NC RESERVE.............
 
 
 
STATION/POSITION TIME SKY/WX TEMP WIND PRES VSBY
 
AIR SEA DIR/SP/G  
(UTC) (F) (DEG/KT/KT) (MB) (MI)  
JOHNY MRCER PIER 0948 73 76 230/ 8/ 9 1009.9F  
NC RESRV MASNBRO 0845 72 270/ 1 1012.0  
OCEAN CREST PIER NOT AVBL  
SPRINGMAID PIER 0948 1010.4F  
 
   
...............COASTAL AND OFFSHORE BUOYS.............
 
 
 
STATION/POSITION TIME SKY/WX TEMP WIND PRES VSBY
 
AIR SEA DIR/SP/G  
(UTC) (F) (DEG/KT/KT) (MB) (MI)  
DIMNDSHOAL 41025 0950 75 76 230/ 12/ 14 1010.0F  
WVE H/P(F/S)= 3/ 6 SWL H/P/D(F/S/D)= 3/210/ 6  
 
CAPE LOOKOUT 1000 74 230/ 8/ 10 1010.3S  
ONSLOW BAY 41036 NOT AVBL  
ONSLOW BAY 41064 0908 76 76 250/ 14/ 16 1011.1F  
ONSLOW BAY 41159 0943 76 N/A  
WVE H/P(F/S)= 4/ 5  
 
MASNBO INL 41110 0959 75 N/A  
WVE H/P(F/S)= 2/ 7  
 
WILM HARBR 41108 0947 76 N/A  
WVE H/P(F/S)= 3/ 5  
 
27SE WRITB 41037 NOT AVBL  
FRYING PAN 41013 1000 75 75 230/ 16/ 19 1011.4  
SUNST NRSH 41024 0908 75 75 250/ 10/ 12 1011.3F  
CAPRS NRSH 41029 0908 79 77 250/ 10/ 16 1012.3F  
EDISTO 41004 0950 76 75 230/ 12/ 14 1012.1F  
WVE H/P(F/S)= 3/ 5 SWL H/P/D(F/S/D)= 2/150/ 8  
 
   
.........OFFSHORE BUOYS BEYOND 100 NM OFFSHORE........
 
   
....IN A TRIANGLE---HAT TO BERMUDA TO BAHAMAS TO HAT..
 
 
 
 
STATION/POSITION TIME SKY/WX TEMP WIND PRES VSBY
 
AIR SEA DIR/SP/G  
(UTC) (F) (DEG/KT/KT) (MB) (MI)  
150E HAT 41001 1000 76 75 210/ 14/ 17 1012.0  
W BERMUDA 41048 1000 75 75 230/ 10/ 12 1015.6  
ATLANTIC S 41049 0950 76 77 190/ 10/ 12 1019.1R  
WVE H/P(F/S)= 4/ 7 SWL H/P/D(F/S/D)= 3/140/ 7  
 
E BAHAMAS 41046 1000 78 80 140/ 2/ 4 1018.3  
NE BAHAMAS 41047 1000 77 79 270/ 6/ 8 1017.3  
120E CANVRL41010 1000 79 79 190/ 10/ 12 1014.5  
 
END  
 
 
CLICK HERE TO GO TO PREVIOUS BULLETINS.

The Nexlab NC Page
The Nexlab SC Page Main Text Page